[[{"header":{"parameterUnit":"m.s-1","parameterCategory":1,"la1":30.2991,"la2":30.254,"lo1":-89.0895,"lo2":-89.0444,"dy":0.0017,"dx":0.0017,"nx":28,"ny":28,"refTime":"2025-08-27T09:00:00:Z","depth":0,"parameterNumber":2,"parameterNumberName":"U-component_of_WINDS"},"data":[0,0,0,0,0,0,0,0,0,0,0,0,0,0,0,0,0,0,0,0,0,0,0,0,0,0,0,0,0,0,0,0,0,0,0,0,0,0,0,0,0,0,0,0,0,0,0,0,0,0,0,0,0,0,0,0,0,0,1.3752,1.3753,0,1.386,1.3862,1.3863,1.3932,1.3932,1.3933,1.3933,1.404,1.4042,1.4044,0,0,0,0,0,0,0,0,0,0,0,0,0,1.3599,1.3602,1.3751,1.3753,1.3754,1.386,1.3862,1.3863,1.3932,1.3932,1.3933,1.3933,1.4039,1.4042,1.4045,0,0,0,0,0,0,0,0,0,0,0,0,0,1.3682,1.3602,1.3751,1.3801,1.3807,1.386,1.3862,1.3863,1.3932,1.3932,1.3933,1.3934,1.4038,1.4041,1.4045,1.4055,0,0,1.4056,1.4058,0,0,0,0,0,0,0,0,1.3677,1.3688,1.3793,1.3798,1.3804,1.3883,1.3847,1.3927,1.3932,1.3884,1.3933,1.3934,1.3987,1.3995,1.4013,1.406,1.4064,1.4056,1.4059,1.406,1.4061,0,0,0,0,0,0,0,1.3672,1.3683,1.3794,1.3794,1.3801,1.3817,1.383,1.3863,1.393,1.3888,1.3894,1.3906,1.399,1.401,1.4016,1.4066,1.4056,1.406,1.4062,1.4063,1.4126,1.4126,0,0,0,0,0,0,1.3658,1.3678,1.3791,1.3798,1.3741,1.3819,1.3833,1.3857,1.393,1.3942,1.3905,1.3909,1.4003,1.4012,1.402,1.4037,1.406,1.4064,1.4066,1.4127,1.4126,1.4126,0,0,0,0,0,0,1.3655,1.3668,1.3787,1.3739,1.3756,1.3821,1.3848,1.3859,1.3879,1.3943,1.3955,1.3913,1.4004,1.4015,1.4046,1.4042,1.4065,1.4069,1.4127,1.4127,1.4126,1.407,0,0,0,0,0,0,1.365,1.3666,1.3672,1.3739,1.3758,1.3811,1.3847,1.3861,1.3886,1.3891,1.3954,1.3965,1.4005,1.404,1.405,1.4047,1.4072,1.4128,1.4127,1.4126,1.4072,1.4067,1.4063,0,0,0,0,0,1.3645,1.365,1.3671,1.3685,1.3766,1.3811,1.3822,1.387,1.3885,1.389,1.3932,1.3963,1.4041,1.4043,1.4054,1.4052,1.4129,1.4127,1.4126,1.4074,1.4068,1.4063,0,0,0,0,0,0,1.3578,1.366,1.3684,1.3712,1.3754,1.3823,1.3831,1.3862,1.3899,1.3902,1.3959,1.3973,1.3998,1.4029,1.4029,1.4066,1.4088,1.4089,1.4045,1.4039,1.4035,1.4026,1.4075,0,0,0,0,0,1.3567,1.3598,1.3667,1.3685,1.3705,1.3764,1.3786,1.3819,1.3865,1.3882,1.3926,1.3967,1.4001,1.4022,1.4057,1.4077,1.4092,1.4082,1.4077,1.4073,1.4072,1.4085,1.4081,1.4122,1.4122,1.4122,0,0,1.3544,1.3592,1.3608,1.3673,1.371,1.3739,1.3779,1.3808,1.383,1.3886,1.3918,1.3952,1.4002,1.4027,1.4041,1.4054,1.4065,1.4071,1.4067,1.4069,1.4083,1.4079,1.4076,1.4121,1.4121,1.4121,0,0,1.3517,1.3557,1.3576,1.3613,1.3669,1.3708,1.3712,1.3777,1.3801,1.3835,1.3878,1.3905,1.3962,1.3996,1.4021,1.4008,1.4037,1.4017,1.3992,1.4003,1.4,1.3998,1.3992,1.3989,1.4017,1.4017,1.4017,0,1.348,1.3528,1.3582,1.3609,1.3636,1.3691,1.371,1.3742,1.3805,1.3822,1.3836,1.391,1.3948,1.3982,1.3979,1.3997,1.4003,1.401,1.3997,1.3995,1.3993,1.3988,1.3986,1.4014,1.4014,1.4015,1.4015,0,1.348,1.3512,1.3521,1.3583,1.3611,1.3634,1.369,1.3712,1.3744,1.3781,1.3815,1.3862,1.3907,1.3918,1.3949,1.3957,1.3963,1.3986,1.4009,1.3985,1.3982,1.398,1.401,1.4011,1.4012,1.4013,0,0,1.3412,1.3505,1.3507,1.3536,1.3602,1.3627,1.3653,1.3699,1.3716,1.3758,1.378,1.3829,1.3851,1.3879,1.3914,1.3924,1.391,1.3946,1.3948,1.3937,1.3921,1.3902,1.3899,1.3931,1.3931,1.3931,1.3917,0,1.3393,1.3443,1.3493,1.3525,1.3555,1.3608,1.363,1.3672,1.3708,1.3738,1.3777,1.381,1.3837,1.3855,1.3868,1.3909,1.3907,1.3911,1.395,1.3951,1.3935,1.3898,1.3878,1.3862,1.3916,1.3915,1.3915,0,1.3378,1.342,1.3455,1.3519,1.3533,1.3552,1.3599,1.3628,1.3676,1.3702,1.3734,1.3771,1.38,1.3821,1.386,1.3861,1.3881,1.3904,1.3904,1.3908,1.393,1.39,1.3859,1.3855,1.3914,1.3914,1.3914,0,1.3324,1.3389,1.3418,1.3441,1.3517,1.3529,1.3561,1.3611,1.3635,1.3676,1.3692,1.3735,1.3758,1.3789,1.3837,1.3848,1.3871,1.3896,1.3891,1.389,1.3892,1.3891,1.3852,1.3907,1.3907,1.3907,1.3907,0,1.3297,1.3316,1.3395,1.3413,1.3435,1.3493,1.3513,1.3549,1.3593,1.3618,1.3666,1.3688,1.3751,1.378,1.3818,1.3844,1.3854,1.3875,1.3884,1.3869,1.3867,1.3882,1.3883,1.3906,1.3906,1.3907,1.3907,0,1.3239,1.3293,1.3328,1.3398,1.3416,1.3429,1.3488,1.3507,1.3547,1.3578,1.3588,1.365,1.3687,1.3738,1.379,1.3816,1.3836,1.3852,1.382,1.3825,1.3817,1.3817,1.3785,1.3784,1.384,1.384,1.3839,0,1.3218,1.3234,1.3306,1.3327,1.3358,1.3391,1.3417,1.3474,1.3499,1.3557,1.3568,1.3609,1.3645,1.3702,1.375,1.379,1.3807,1.3793,1.3813,1.3798,1.3805,1.3803,1.3805,1.3787,1.3787,1.3786,1.3785,0,1.3174,1.32,1.3237,1.3283,1.3313,1.3352,1.3392,1.3407,1.3472,1.3497,1.3537,1.3565,1.362,1.3659,1.3707,1.3738,1.3772,1.3779,1.378,1.3764,1.3744,1.3754,1.3805,1.3779,1.378,1.378,1.378,1.3781,1.3133,1.315,1.3203,1.3243,1.328,1.3317,1.3338,1.3381,1.3416,1.3466,1.3497,1.3535,1.3584,1.3651,1.3681,1.3711,1.3724,1.3726,1.3726,1.3725,1.3719,1.3741,1.372,1.372,1.372,1.372,1.372,0,1.309,1.3128,1.3164,1.322,1.3251,1.3283,1.333,1.3353,1.3386,1.343,1.3465,1.351,1.3549,1.3601,1.3644,1.3658,1.3674,1.3667,1.3665,1.3672,1.3705,1.37,1.3653,1.3653,1.3653,1.3653,1.3653,1.3653,1.3072,1.3102,1.3134,1.3183,1.3221,1.3259,1.3283,1.3318,1.3353,1.3402,1.3435,1.347,1.3517,1.3564,1.3601,1.3615,1.3628,1.3615,1.3634,1.3664,1.367,1.3675,1.3671,1.3618,1.3618,1.3599,1.3598,1.3598]},{"header":{"parameterUnit":"m.s-1","parameterCategory":1,"la1":30.2991,"la2":30.254,"lo1":-89.0895,"lo2":-89.0444,"dy":0.0017,"dx":0.0017,"nx":28,"ny":28,"refTime":"2025-08-27T09:00:00:Z","depth":0,"parameterNumber":3,"parameterNumberName":"V-component_of_WINDS"},"data":[0,0,0,0,0,0,0,0,0,0,0,0,0,0,0,0,0,0,0,0,0,0,0,0,0,0,0,0,0,0,0,0,0,0,0,0,0,0,0,0,0,0,0,0,0,0,0,0,0,0,0,0,0,0,0,0,0,0,-0.5147,-0.5147,0,-0.5128,-0.5128,-0.5128,-0.5146,-0.5146,-0.5147,-0.5148,-0.5124,-0.5122,-0.5121,0,0,0,0,0,0,0,0,0,0,0,0,0,-0.5195,-0.5194,-0.5147,-0.5147,-0.5147,-0.5128,-0.5128,-0.5128,-0.5145,-0.5146,-0.5147,-0.5148,-0.5124,-0.5123,-0.5121,0,0,0,0,0,0,0,0,0,0,0,0,0,-0.5175,-0.5194,-0.5147,-0.5153,-0.5154,-0.5129,-0.5128,-0.5128,-0.5145,-0.5146,-0.5147,-0.5148,-0.5125,-0.5123,-0.5121,-0.5087,0,0,-0.5115,-0.5114,0,0,0,0,0,0,0,0,-0.5176,-0.5173,-0.5153,-0.5153,-0.5153,-0.5141,-0.5136,-0.5114,-0.5145,-0.5148,-0.5148,-0.5149,-0.5128,-0.5126,-0.512,-0.5086,-0.5085,-0.5115,-0.5113,-0.5113,-0.5112,0,0,0,0,0,0,0,-0.5177,-0.5174,-0.514,-0.5152,-0.5153,-0.5156,-0.5154,-0.5132,-0.5132,-0.5148,-0.5149,-0.5147,-0.5128,-0.5122,-0.5119,-0.5085,-0.5115,-0.5113,-0.5112,-0.5111,-0.5023,-0.5022,0,0,0,0,0,0,-0.5179,-0.5175,-0.514,-0.5139,-0.5168,-0.5154,-0.5152,-0.5143,-0.5133,-0.5132,-0.5146,-0.5148,-0.5125,-0.5122,-0.5119,-0.5079,-0.5113,-0.5111,-0.511,-0.5024,-0.5023,-0.5021,0,0,0,0,0,0,-0.518,-0.5175,-0.5141,-0.5157,-0.5153,-0.5152,-0.5142,-0.5143,-0.5136,-0.5131,-0.5131,-0.514,-0.5125,-0.5121,-0.5095,-0.5078,-0.511,-0.5108,-0.5026,-0.5024,-0.5022,-0.4999,0,0,0,0,0,0,-0.5181,-0.5176,-0.5163,-0.5157,-0.5152,-0.5119,-0.5141,-0.5141,-0.5133,-0.5135,-0.5125,-0.5124,-0.5126,-0.5098,-0.5093,-0.5076,-0.5107,-0.5027,-0.5025,-0.5023,-0.5001,-0.4996,-0.4992,0,0,0,0,0,-0.5182,-0.5156,-0.5163,-0.5158,-0.5137,-0.5118,-0.5115,-0.5119,-0.5132,-0.5119,-0.5116,-0.5124,-0.5081,-0.5095,-0.509,-0.5072,-0.5028,-0.5025,-0.5023,-0.5003,-0.4997,-0.4992,0,0,0,0,0,0,-0.5158,-0.5155,-0.5162,-0.5134,-0.5126,-0.5121,-0.5105,-0.5113,-0.51,-0.5102,-0.5106,-0.5104,-0.5076,-0.5072,-0.5087,-0.5039,-0.5057,-0.5053,-0.5043,-0.5038,-0.5034,-0.5035,-0.5105,0,0,0,0,0,-0.515,-0.5136,-0.5134,-0.5108,-0.5104,-0.5105,-0.5097,-0.5101,-0.5092,-0.5089,-0.5084,-0.5074,-0.5059,-0.5048,-0.5034,-0.5001,-0.4999,-0.4986,-0.4982,-0.4978,-0.4974,-0.4957,-0.4951,-0.5013,-0.5013,-0.5013,0,0,-0.5132,-0.5129,-0.5119,-0.5103,-0.5098,-0.5082,-0.5102,-0.5084,-0.5072,-0.5085,-0.5061,-0.5058,-0.5047,-0.5018,-0.5005,-0.5013,-0.4957,-0.4975,-0.4972,-0.497,-0.4954,-0.4948,-0.4943,-0.5011,-0.5011,-0.5012,0,0,-0.5091,-0.5087,-0.5066,-0.5061,-0.5053,-0.5055,-0.505,-0.5044,-0.5042,-0.5018,-0.5028,-0.5014,-0.4987,-0.4979,-0.4972,-0.493,-0.4937,-0.4925,-0.4902,-0.4885,-0.4881,-0.4876,-0.4861,-0.4856,-0.4922,-0.4922,-0.4922,0,-0.5068,-0.5046,-0.5054,-0.5036,-0.5028,-0.5042,-0.5021,-0.5015,-0.5002,-0.4996,-0.5006,-0.4974,-0.4968,-0.4937,-0.4927,-0.4921,-0.4915,-0.4925,-0.4881,-0.4877,-0.4873,-0.4858,-0.4853,-0.492,-0.492,-0.492,-0.4921,0,-0.5019,-0.5004,-0.4988,-0.4977,-0.4968,-0.4948,-0.4952,-0.4942,-0.4947,-0.4947,-0.4923,-0.4917,-0.4901,-0.4895,-0.4899,-0.4865,-0.487,-0.4881,-0.4898,-0.4865,-0.4852,-0.4846,-0.4918,-0.4919,-0.4919,-0.4919,0,0,-0.496,-0.4956,-0.495,-0.4946,-0.494,-0.4927,-0.4908,-0.4895,-0.4886,-0.4877,-0.4861,-0.4839,-0.4849,-0.4841,-0.4844,-0.483,-0.4797,-0.4842,-0.4842,-0.4834,-0.476,-0.4751,-0.4745,-0.4803,-0.4802,-0.4801,-0.476,0,-0.4919,-0.4887,-0.4894,-0.4862,-0.4848,-0.4862,-0.4845,-0.4839,-0.4839,-0.4826,-0.4826,-0.481,-0.4825,-0.482,-0.4806,-0.4804,-0.4782,-0.4807,-0.4786,-0.4786,-0.4788,-0.4738,-0.4728,-0.469,-0.4755,-0.4754,-0.4754,0,-0.4865,-0.4857,-0.4824,-0.4821,-0.4816,-0.4801,-0.479,-0.4778,-0.4771,-0.4772,-0.4764,-0.4771,-0.4751,-0.4771,-0.4743,-0.476,-0.4752,-0.475,-0.4749,-0.4746,-0.4767,-0.4732,-0.4677,-0.4671,-0.4745,-0.4746,-0.4747,0,-0.4825,-0.4805,-0.4783,-0.4779,-0.4776,-0.4765,-0.4763,-0.4758,-0.475,-0.474,-0.4735,-0.4722,-0.4715,-0.4705,-0.4708,-0.4722,-0.468,-0.47,-0.468,-0.468,-0.4669,-0.4669,-0.4611,-0.4666,-0.4666,-0.4666,-0.4666,0,-0.4777,-0.4756,-0.4765,-0.4752,-0.4729,-0.4738,-0.4714,-0.4714,-0.4709,-0.4695,-0.4707,-0.4693,-0.4699,-0.4685,-0.4688,-0.4665,-0.4661,-0.4661,-0.4661,-0.4659,-0.4659,-0.4653,-0.4655,-0.4664,-0.4665,-0.4665,-0.4665,0,-0.4727,-0.4733,-0.471,-0.4709,-0.4709,-0.4692,-0.4691,-0.4678,-0.468,-0.4662,-0.4658,-0.466,-0.4645,-0.4648,-0.4631,-0.4633,-0.4604,-0.4608,-0.4606,-0.4607,-0.4587,-0.4588,-0.4521,-0.4513,-0.4574,-0.4573,-0.4573,0,-0.4695,-0.468,-0.4679,-0.4671,-0.4669,-0.4656,-0.4649,-0.4657,-0.4648,-0.4641,-0.4629,-0.4615,-0.4604,-0.458,-0.4579,-0.4566,-0.457,-0.4547,-0.4568,-0.4566,-0.4569,-0.4569,-0.4567,-0.4543,-0.4542,-0.4541,-0.4541,0,-0.4639,-0.4643,-0.4633,-0.4624,-0.4615,-0.4608,-0.4602,-0.4595,-0.4602,-0.4592,-0.4578,-0.457,-0.4554,-0.454,-0.4529,-0.4525,-0.4534,-0.4535,-0.453,-0.4526,-0.4526,-0.4525,-0.4594,-0.4536,-0.4537,-0.4537,-0.4537,-0.4537,-0.4596,-0.4584,-0.4582,-0.457,-0.4567,-0.4561,-0.4549,-0.4551,-0.454,-0.4528,-0.4534,-0.4517,-0.4512,-0.4498,-0.4493,-0.448,-0.4488,-0.4481,-0.4478,-0.4476,-0.4473,-0.4529,-0.4478,-0.4478,-0.4478,-0.4479,-0.4479,0,-0.454,-0.454,-0.4529,-0.4521,-0.4512,-0.4524,-0.4518,-0.4509,-0.4495,-0.4491,-0.4481,-0.4465,-0.4452,-0.4451,-0.4439,-0.4429,-0.4432,-0.4425,-0.4425,-0.4424,-0.4467,-0.4473,-0.4422,-0.4422,-0.4423,-0.4423,-0.4423,-0.4423,-0.4509,-0.4489,-0.4493,-0.4471,-0.4471,-0.4456,-0.4452,-0.4446,-0.4443,-0.4425,-0.4415,-0.4416,-0.4412,-0.4401,-0.4389,-0.4389,-0.4384,-0.4375,-0.4376,-0.4416,-0.4421,-0.4427,-0.4432,-0.4374,-0.4374,-0.4335,-0.4334,-0.4334]}]]